Location: Cucq
(50.4773°N, 1.6202°E)
Time: 04:26:06
(UTC+00:00)

SL-08 R/B - Pass Details

Date: 07 August 2020
Orbit: 673 x 740 km, 98.4° (Epoch: 19 September)

Event Time Altitude Azimuth Distance (km) Brightness Sun altitude
Exits shadow 02:44:00 - 171° (S) 2,438 5.7 -14.1°
Reaches altitude 10° 02:44:30 10° 171° (S) 2,240 5.5 -14.0°
Maximum altitude 02:49:26 73° 257° (WSW) 779 3.4 -13.5°
Drops below altitude 10° 02:54:24 10° 342° (NNW) 2,261 6.3 -13.0°
Sets 02:56:43 0° 344° (NNW) 3,186 7.2 -12.7°
